Weather History for Dayton Wright, OH

Change the Weather History Date:

Tuesday, January 7, 2014

  Actual Average (KFFO) Record (KFFO)
Temperature  
Mean Temperature 1 °F -  
Max Temperature 10 °F 36 °F 66 °F (2008)
Min Temperature -8 °F 21 °F -8 °F (2014)
Degree Days  
Heating Degree Days 64    
Moisture  
Dew Point -8 °F    
Average Humidity 64    
Maximum Humidity 72    
Minimum Humidity 55    
Precipitation  
Precipitation 0.00 in - - ()
Sea Level Pressure  
Sea Level Pressure 30.43 in    
Wind  
Wind Speed 13 mph (SW)    
Max Wind Speed 20 mph    
Max Gust Speed 30 mph    
Visibility 10 miles    
Events      
Averages and records for this station are not official NWS values.
T = Trace of Precipitation, MM = Missing Value Source: NWS Daily Summary

Daily Weather History Graph

Daily Weather History Graph

Search for Another Location

Airport:

Trip Planner

Search our weather history database for the weather conditions in past years. The results will help you decide how hot, cold, wet, or windy it might be!

Date:

Astronomy

Jan. 07, 2014 Rise Set
Actual Time 7:57 AM EST 5:29 PM EST
Civil Twilight 7:27 AM EST 5:59 PM EST
Nautical Twilight 6:54 AM EST 6:32 PM EST
Astronomical Twilight 6:21 AM EST 7:05 PM EST
Moon 11:47 AM EST (1/7) No Moon Set
Length of Visible Light 10h 31m
Length of Day
9h 31m
Waxing Crescent, 45% of the Moon is Illuminated
Jan 7
Waxing Crescent
Jan 7
First Quarter
Jan 15
Full
Jan 24
Last Quarter
Jan 30
New

Hourly Weather History & Observations

Time (EST) Temp. Windchill Dew Point Humidity Pressure Visibility Wind Dir Wind Speed Gust Speed Precip Events Conditions
12:07 AM -7.6 °F -28.3 °F -16.6 °F 65% 30.31 in 10.0 mi WSW 13.8 mph 20.7 mph N/A   Scattered Clouds
12:53 AM -8.0 °F -29.6 °F -16.1 °F 68% 30.40 in 10.0 mi WSW 15.0 mph - N/A   Clear
1:53 AM -8.0 °F -29.6 °F -16.1 °F 68% 30.40 in 10.0 mi WSW 15.0 mph - N/A   Clear
2:53 AM -7.1 °F -26.8 °F -15.0 °F 68% 30.43 in 10.0 mi WSW 12.7 mph 21.9 mph N/A   Clear
3:53 AM -7.1 °F -27.6 °F -15.0 °F 68% 30.41 in 10.0 mi SW 13.8 mph - N/A   Clear
4:53 AM -7.1 °F -28.4 °F -14.1 °F 72% 30.42 in 10.0 mi WSW 15.0 mph 23.0 mph N/A   Clear
5:53 AM -7.1 °F -25.0 °F -14.1 °F 72% 30.42 in 10.0 mi WSW 10.4 mph 21.9 mph N/A   Clear
6:53 AM -6.0 °F -25.5 °F -14.1 °F 68% 30.43 in 10.0 mi SW 12.7 mph - N/A   Clear
7:53 AM -6.0 °F -26.3 °F -13.0 °F 72% 30.45 in 10.0 mi SW 13.8 mph 20.7 mph N/A   Clear
8:53 AM -5.1 °F -27.2 °F -11.9 °F 72% 30.48 in 10.0 mi SW 17.3 mph - N/A   Partly Cloudy
9:53 AM -2.9 °F -25.6 °F -11.0 °F 68% 30.51 in 10.0 mi WSW 19.6 mph 29.9 mph N/A   Clear
10:53 AM -0.9 °F -20.6 °F -11.0 °F 62% 30.49 in 10.0 mi SW 15.0 mph 21.9 mph N/A   Clear
11:53 AM 1.0 °F -16.6 °F -9.0 °F 63% 30.49 in 10.0 mi WSW 12.7 mph 20.7 mph N/A   Clear
12:53 PM 3.0 °F -14.1 °F -9.0 °F 57% 30.45 in 10.0 mi WSW 12.7 mph 20.7 mph N/A   Clear
1:53 PM 5.0 °F -10.8 °F -6.0 °F 61% 30.43 in 10.0 mi WSW 11.5 mph - N/A   Mostly Cloudy
2:53 PM 7.0 °F -7.5 °F -6.0 °F 55% 30.43 in 10.0 mi SW 10.4 mph 19.6 mph N/A   Clear
3:53 PM 8.1 °F -6.2 °F -5.1 °F 55% 30.43 in 10.0 mi SSW 10.4 mph - N/A   Overcast
4:53 PM 8.1 °F -4.3 °F -4.0 °F 58% 30.41 in 10.0 mi SW 8.1 mph - N/A   Partly Cloudy
5:53 PM 9.0 °F -3.2 °F -2.9 °F 59% 30.41 in 10.0 mi SSW 8.1 mph - N/A   Overcast
6:53 PM 10.0 °F -4.5 °F -2.0 °F 58% 30.42 in 10.0 mi SSW 11.5 mph - N/A   Overcast
7:53 PM 10.0 °F -3.7 °F -0.9 °F 61% 30.43 in 10.0 mi SSW 10.4 mph - N/A   Overcast
8:53 PM 10.0 °F -0.9 °F -0.9 °F 61% 30.43 in 10.0 mi SSW 6.9 mph - N/A   Overcast
9:53 PM 10.9 °F 0.2 °F 1.0 °F 64% 30.44 in 10.0 mi SSW 6.9 mph - N/A   Overcast
10:53 PM 10.9 °F -3.4 °F 1.9 °F 67% 30.43 in 10.0 mi South 11.5 mph - N/A   Overcast
11:53 PM 10.9 °F -1.8 °F 3.0 °F 70% 30.42 in 10.0 mi SSW 9.2 mph - N/A   Overcast